{"data":{"norad_id":60098,"intl_designator":"2024-117H","name":"STARLINK-32026","alt_names":[],"object_type":"PAYLOAD","status":"ACTIVE","operator":null,"country":"US","launch_date":"2024-06-23","launch_site_code":"AFETR","launch_vehicle":null,"mission":null,"orbit_class":"UNKNOWN","rcs_meters":null,"size_class":null,"mass_kg":null,"dimensions":null,"purposes":["comms"],"wikipedia_slug":null,"has_3d_model":false,"image_url":null,"decayed_at":null,"tle_current":{"epoch":"2026-09-21T05:48:29.740032Z","epoch_age_seconds":113297,"freshness":"FRESH","line1":"1 60098U 24117H   26264.24201088 -.00000604  00000+0 -67470-5 0  9993","line2":"2 60098  53.1577 206.1638 0001498  87.0631 273.0543 15.34391471126861","mean_motion":15.34391471,"eccentricity":0.0001498,"inclination_deg":53.1577,"raan_deg":206.1638,"arg_perigee_deg":87.0631,"mean_anomaly_deg":273.0543,"bstar":-6.747e-6,"rev_number":12686,"period_min":93.848279739297,"perigee_km":461.70382864451,"apogee_km":463.75335197536,"semimajor_km":6840.8655903099,"source":"CELESTRAK","updated_at":"2026-09-22T09:00:49.151022Z"}}}